Date String (YYYY-MM-DD hh:mm:ss) UTC,Instrument flags,absolute air pressure of the measurement (hPa),sample flow rate (lpm),inlet stack bypass flow (lpm),air temperature of the measurement (°C),ambient temperature measured by the external sensor (°C),aerosol sample conditioner tube jacket temperature (°C),OPC LED temperature (°C),internal box temperature (°C),relative humidity of the measurement (%),span deviation,mass concentration of particles derived from Lorenz-Mie calculation of OPC scattering (μg/m³),mass concentration of particles derived from Lorenz-Mie calculation of OPC scattering (μg/m³),mass concentration of particles derived from Lorenz-Mie calculation of OPC scattering (μg/m³)
DateTimeUTC,F1_M11,P_M11,Q1_M11,Q2_M11,T1_M11,T2_M11,T3_M11,T4_M11,T5_M11,U1_M11,ZSPAN_M11,X2_M11,X0_M11,X1_M11
2023-11-07 05:00:00,SystemResetWarning,0823.4,5.00,000.00,028.3,027.4,000.0,036.7,029.7,9.1,0000.0,0003.81,0010.54,0003.24
2023-11-07 05:01:00,SystemResetWarning,0823.4,5.00,000.00,028.4,027.4,000.0,036.7,029.7,9.0,0000.0,0003.81,0010.55,0003.25
2023-11-07 05:02:00,SystemResetWarning,0823.4,4.98,000.00,028.3,027.4,000.0,036.7,029.7,9.0,0000.0,0003.86,0010.55,0003.29
2023-11-07 05:03:00,SystemResetWarning,0823.4,5.00,000.00,028.4,027.4,000.0,036.7,029.7,8.9,0000.0,0003.87,0010.35,0003.30
2023-11-07 05:04:00,SystemResetWarning,0823.5,4.99,000.00,028.4,027.4,000.0,036.7,029.8,8.7,0000.0,0003.87,0010.07,0003.30
2023-11-07 05:05:00,SystemResetWarning,0823.5,5.01,000.00,028.4,027.4,000.0,036.7,029.8,8.7,0000.0,0003.84,0009.52,0003.28
2023-11-07 05:06:00,SystemResetWarning,0823.5,4.99,000.00,028.4,026.9,000.0,036.7,029.8,8.7,0000.0,0003.81,0009.88,0003.25
2023-11-07 05:07:00,SystemResetWarning,0823.5,5.00,000.00,028.3,024.4,000.0,036.7,029.5,8.7,0000.0,0003.81,0009.80,0003.22
2023-11-07 05:08:00,SystemResetWarning,0823.5,5.02,000.00,028.2,023.0,000.0,036.5,029.2,8.8,0000.0,0003.77,0009.44,0003.19
2023-11-07 05:09:00,SystemResetWarning,0823.4,5.01,000.00,028.0,023.0,000.0,036.5,028.7,9.0,0000.0,0003.73,0008.92,0003.17
2023-11-07 05:10:00,SystemResetWarning,0823.4,4.99,000.00,027.7,023.5,000.0,036.4,028.4,9.2,0000.0,0003.75,0008.91,0003.16
2023-11-07 05:11:00,SystemResetWarning,0823.4,5.01,000.00,027.6,024.1,000.0,036.3,028.5,9.3,0000.0,0003.76,0008.96,0003.17
2023-11-07 05:12:00,SystemResetWarning,0823.4,5.01,000.00,027.6,024.5,000.0,036.2,028.6,9.3,0000.0,0003.78,0008.99,0003.20
2023-11-07 05:13:00,SystemResetWarning,0823.4,4.99,000.00,027.5,024.9,000.0,036.2,028.6,9.2,0000.0,0003.76,0008.75,0003.17
2023-11-07 05:14:00,SystemResetWarning,0823.4,5.00,000.00,027.5,025.3,000.0,036.1,028.7,9.3,0000.0,0003.74,0008.50,0003.15
2023-11-07 05:15:00,SystemResetWarning,0823.4,5.00,000.00,027.5,025.5,000.0,036.1,028.8,9.3,0000.0,0003.69,0008.48,0003.14
2023-11-07 05:16:00,SystemResetWarning,0823.4,5.00,000.00,027.5,025.8,000.0,036.1,028.8,9.2,0000.0,0003.72,0008.46,0003.15
2023-11-07 05:17:00,SystemResetWarning,0823.4,5.00,000.00,027.5,025.9,000.0,036.0,028.9,9.2,0000.0,0003.74,0007.78,0003.17
2023-11-07 05:18:00,SystemResetWarning,0823.3,4.99,000.00,027.5,026.1,000.0,036.0,028.9,9.2,0000.0,0003.75,0007.91,0003.20
2023-11-07 05:19:00,SystemResetWarning,0823.3,5.00,000.00,027.5,026.2,000.0,036.0,028.9,9.2,0000.0,0003.80,0008.10,0003.23
2023-11-07 05:20:00,SystemResetWarning,0823.3,5.00,000.00,027.5,026.3,000.0,036.0,029.0,9.2,0000.0,0003.85,0008.21,0003.25
2023-11-07 05:21:00,SystemResetWarning,0823.3,5.00,000.00,027.6,026.4,000.0,036.0,029.0,9.2,0000.0,0003.84,0008.04,0003.25
2023-11-07 05:22:00,SystemResetWarning,0823.3,4.99,000.00,027.6,026.5,000.0,036.0,029.1,9.1,0000.0,0003.85,0008.13,0003.27
2023-11-07 05:23:00,SystemResetWarning,0823.3,5.01,000.00,027.6,026.5,000.0,036.0,029.1,9.1,0000.0,0003.91,0008.24,0003.31
2023-11-07 05:24:00,SystemResetWarning,0823.3,5.01,000.00,027.6,026.6,000.0,036.0,029.1,9.1,0000.0,0003.93,0008.22,0003.33
2023-11-07 05:25:00,SystemResetWarning,0823.2,5.00,000.00,027.6,026.6,000.0,036.0,029.2,9.0,0000.0,0003.91,0008.33,0003.33
2023-11-07 05:26:00,SystemResetWarning,0823.1,4.99,000.00,027.7,026.7,000.0,036.0,029.2,9.0,0000.0,0003.88,0008.71,0003.31
2023-11-07 05:27:00,SystemResetWarning,0823.0,5.00,000.00,027.7,026.7,000.0,036.0,029.2,8.9,0000.0,0003.86,0008.76,0003.30
2023-11-07 05:28:00,SystemResetWarning,0823.1,5.00,000.00,027.7,026.8,000.0,036.0,029.2,8.9,0000.0,0003.81,0008.74,0003.27
2023-11-07 05:29:00,SystemResetWarning,0823.1,4.99,000.00,027.7,026.8,000.0,036.0,029.2,8.9,0000.0,0003.78,0008.51,0003.26
2023-11-07 05:30:00,SystemResetWarning,0823.2,5.00,000.00,027.7,026.8,000.0,036.0,029.3,8.8,0000.0,0003.72,0008.58,0003.24
2023-11-07 05:31:00,SystemResetWarning,0823.2,5.01,000.00,027.8,026.9,000.0,036.1,029.3,8.9,0000.0,0003.64,0008.62,0003.22
2023-11-07 05:32:00,SystemResetWarning,0823.3,5.01,000.00,027.8,026.9,000.0,036.1,029.3,8.8,0000.0,0003.61,0008.37,0003.19
2023-11-07 05:33:00,SystemResetWarning,0823.3,5.00,000.00,027.8,026.9,000.0,036.1,029.3,8.8,0000.0,0003.62,0008.22,0003.20
2023-11-07 05:34:00,SystemResetWarning,0823.2,5.01,000.00,027.8,026.9,000.0,036.1,029.3,8.8,0000.0,0003.63,0008.74,0003.19
2023-11-07 05:35:00,SystemResetWarning,0823.2,4.99,000.00,027.8,026.9,000.0,036.1,029.3,8.8,0000.0,0003.60,0009.06,0003.18
2023-11-07 05:36:00,SystemResetWarning,0823.1,4.99,000.00,027.8,026.9,000.0,036.1,029.3,8.8,0000.0,0003.59,0009.28,0003.19
2023-11-07 05:37:00,SystemResetWarning,0823.1,5.00,000.00,027.8,027.0,000.0,036.1,029.3,8.8,0000.0,0003.62,0009.31,0003.19
2023-11-07 05:38:00,SystemResetWarning,0823.0,5.01,000.00,027.8,027.0,000.0,036.1,029.4,8.8,0000.0,0003.64,0009.07,0003.20
2023-11-07 05:39:00,SystemResetWarning,0823.1,5.01,000.00,027.8,027.0,000.0,036.1,029.4,8.8,0000.0,0003.64,0009.58,0003.21
2023-11-07 05:40:00,SystemResetWarning,0822.9,5.01,000.00,027.9,027.0,000.0,036.2,029.4,8.9,0000.0,0003.65,0010.12,0003.21
2023-11-07 05:41:00,SystemResetWarning,0823.0,4.99,000.00,027.9,027.0,000.0,036.2,029.4,8.9,0000.0,0003.66,0010.35,0003.20
2023-11-07 05:42:00,SystemResetWarning,0823.0,4.99,000.00,027.9,027.0,000.0,036.2,029.4,8.9,0000.0,0003.69,0010.50,0003.21
2023-11-07 05:43:00,SystemResetWarning,0823.0,4.99,000.00,027.9,027.1,000.0,036.2,029.4,8.9,0000.0,0003.74,0010.56,0003.23
2023-11-07 05:44:00,SystemResetWarning,0823.1,5.00,000.00,027.9,027.1,000.0,036.2,029.4,9.1,0000.0,0003.73,0010.54,0003.23
2023-11-07 05:45:00,SystemResetWarning,0823.1,5.00,000.00,027.9,027.1,000.0,036.2,029.4,9.1,0000.0,0003.72,0010.16,0003.23
2023-11-07 05:46:00,SystemResetWarning,0823.0,5.01,000.00,027.9,027.1,000.0,036.2,029.4,9.0,0000.0,0003.74,0009.71,0003.25
2023-11-07 05:47:00,SystemResetWarning,0823.1,5.00,000.00,027.9,027.1,000.0,036.2,029.4,9.0,0000.0,0003.79,0010.37,0003.25
2023-11-07 05:48:00,SystemResetWarning,0823.1,5.00,000.00,028.0,027.1,000.0,036.2,029.4,9.0,0000.0,0003.80,0011.17,0003.27
2023-11-07 05:49:00,SystemResetWarning,0823.1,5.00,000.00,028.0,027.1,000.0,036.3,029.4,9.0,0000.0,0003.82,0011.60,0003.28
2023-11-07 05:50:00,SystemResetWarning,0823.2,5.00,000.00,028.0,027.1,000.0,036.3,029.5,9.1,0000.0,0003.84,0011.14,0003.29
2023-11-07 05:51:00,SystemResetWarning,0823.2,5.00,000.00,028.0,027.1,000.0,036.3,029.5,9.1,0000.0,0003.87,0010.61,0003.30
2023-11-07 05:52:00,SystemResetWarning,0823.1,5.00,000.00,028.0,027.1,000.0,036.3,029.5,9.1,0000.0,0003.90,0010.51,0003.33
2023-11-07 05:53:00,SystemResetWarning,0823.1,4.99,000.00,028.0,027.1,000.0,036.3,029.5,9.0,0000.0,0003.92,0010.00,0003.33
2023-11-07 05:54:00,SystemResetWarning,0823.1,5.00,000.00,028.0,027.1,000.0,036.3,029.4,9.0,0000.0,0003.90,0010.28,0003.33
2023-11-07 05:55:00,SystemResetWarning,0823.1,5.00,000.00,028.0,027.1,000.0,036.3,029.5,9.0,0000.0,0003.92,0010.38,0003.33
2023-11-07 05:56:00,SystemResetWarning,0823.0,5.00,000.00,028.0,027.1,000.0,036.3,029.4,9.0,0000.0,0003.93,0010.47,0003.34
2023-11-07 05:57:00,SystemResetWarning,0822.9,5.00,000.00,028.0,027.1,000.0,036.3,029.5,9.0,0000.0,0003.95,0010.43,0003.34
2023-11-07 05:58:00,SystemResetWarning,0822.8,5.00,000.00,028.0,027.1,000.0,036.4,029.5,9.0,0000.0,0003.94,0009.65,0003.34
2023-11-07 05:59:00,SystemResetWarning,0823.0,5.00,000.00,028.0,027.1,000.0,036.4,029.5,9.0,0000.0,0003.93,0008.50,0003.32
